GFSNIL_prec_precacc_045.txt.gz
Total_Precipitation_Accumulation
0.00 0.00 0.00 0.00 0.00 0.00 0.00 0.00 0.00 0.00 0.00 0.00 0.01 0.02 0.07 0.21 0.35 0.43 0.47 0.47 0.41 0.34
0.00 0.00 0.00 0.00 0.00 0.00 0.00 0.00 0.00 0.00 0.01 0.05 0.12 0.18 0.27 0.32 0.29 0.27 0.23 0.18 0.15 0.14
0.00 0.00 0.00 0.00 0.00 0.00 0.00 0.00 0.01 0.07 0.16 0.17 0.13 0.08 0.07 0.06 0.06 0.06 0.06 0.07 0.08 0.07
0.00 0.00 0.00 0.00 0.00 0.00 0.00 0.00 0.01 0.03 0.01 0.02 0.04 0.04 0.02 0.02 0.02 0.02 0.02 0.03 0.02 0.02
0.00 0.00 0.00 0.00 0.00 0.00 0.00 0.00 0.03 0.04 0.04 0.05 0.04 0.03 0.03 0.02 0.02 0.02 0.01 0.00 0.00 0.00
0.00 0.00 0.00 0.00 0.00 0.01 0.02 0.03 0.05 0.07 0.05 0.05 0.04 0.02 0.01 0.01 0.01 0.00 0.00 0.00 0.00 0.00
0.00 0.00 0.00 0.01 0.02 0.01 0.03 0.07 0.07 0.06 0.06 0.03 0.01 0.01 0.01 0.00 0.00 0.00 0.00 0.00 0.00 0.00
0.00 0.00 0.01 0.01 0.01 0.04 0.06 0.05 0.07 0.05 0.02 0.00 0.00 0.00 0.00 0.00 0.00 0.00 0.00 0.00 0.00 0.00
0.03 0.07 0.11 0.14 0.10 0.07 0.08 0.08 0.02 0.00 0.00 0.00 0.00 0.00 0.00 0.00 0.00 0.00 0.00 0.00 0.00 0.00
0.09 0.12 0.09 0.05 0.06 0.05 0.02 0.01 0.00 0.01 0.01 0.01 0.00 0.00 0.00 0.00 0.00 0.00 0.00 0.00 0.00 0.00
0.02 0.03 0.03 0.02 0.02 0.01 0.01 0.03 0.04 0.02 0.00 0.00 0.00 0.00 0.00 0.00 0.00 0.00 0.00 0.00 0.00 0.00
0.02 0.03 0.02 0.02 0.03 0.04 0.07 0.04 0.01 0.00 0.00 0.00 0.00 0.00 0.00 0.00 0.00 0.01 0.01 0.00 0.01 0.02
0.00 0.03 0.03 0.04 0.03 0.04 0.03 0.01 0.01 0.00 0.00 0.00 0.00 0.01 0.01 0.01 0.03 0.07 0.04 0.03 0.02 0.02
0.01 0.04 0.05 0.04 0.02 0.02 0.03 0.01 0.01 0.01 0.01 0.01 0.01 0.01 0.01 0.02 0.04 0.10 0.13 0.05 0.03 0.04

GFSNIL_prec_precacc_048.txt.gz
Total_Precipitation_Accumulation
0.00 0.00 0.00 0.00 0.00 0.00 0.00 0.00 0.00 0.00 0.00 0.00 0.01 0.02 0.07 0.21 0.35 0.43 0.48 0.48 0.43 0.35
0.00 0.00 0.00 0.00 0.00 0.00 0.00 0.00 0.00 0.00 0.01 0.05 0.12 0.18 0.27 0.32 0.29 0.27 0.24 0.20 0.16 0.15
0.00 0.00 0.00 0.00 0.00 0.00 0.00 0.00 0.01 0.07 0.16 0.17 0.13 0.08 0.07 0.06 0.06 0.06 0.07 0.08 0.08 0.08
0.00 0.00 0.00 0.00 0.00 0.00 0.00 0.00 0.01 0.03 0.01 0.02 0.04 0.04 0.02 0.02 0.02 0.02 0.02 0.03 0.03 0.02
0.00 0.00 0.00 0.00 0.00 0.00 0.00 0.00 0.03 0.04 0.04 0.05 0.04 0.03 0.03 0.02 0.02 0.03 0.03 0.01 0.01 0.01
0.00 0.00 0.00 0.00 0.00 0.01 0.02 0.03 0.05 0.07 0.05 0.05 0.04 0.02 0.01 0.01 0.01 0.01 0.00 0.00 0.00 0.00
0.00 0.00 0.00 0.01 0.02 0.01 0.03 0.07 0.07 0.06 0.06 0.03 0.01 0.01 0.01 0.01 0.00 0.00 0.00 0.00 0.00 0.00
0.00 0.00 0.01 0.01 0.01 0.04 0.06 0.05 0.07 0.05 0.02 0.00 0.00 0.00 0.00 0.00 0.00 0.00 0.00 0.00 0.00 0.00
0.03 0.07 0.11 0.14 0.10 0.07 0.08 0.08 0.02 0.00 0.00 0.00 0.00 0.00 0.00 0.00 0.00 0.00 0.00 0.00 0.00 0.00
0.09 0.12 0.09 0.05 0.06 0.05 0.02 0.01 0.00 0.01 0.01 0.01 0.00 0.00 0.00 0.00 0.00 0.00 0.00 0.00 0.00 0.00
0.02 0.03 0.03 0.02 0.02 0.01 0.01 0.03 0.04 0.02 0.00 0.00 0.00 0.00 0.00 0.00 0.00 0.00 0.00 0.00 0.00 0.00
0.02 0.03 0.02 0.02 0.03 0.04 0.07 0.04 0.01 0.00 0.00 0.00 0.01 0.00 0.00 0.00 0.00 0.01 0.01 0.00 0.01 0.02
0.00 0.03 0.03 0.04 0.03 0.04 0.03 0.01 0.01 0.00 0.00 0.00 0.01 0.01 0.01 0.01 0.03 0.07 0.04 0.03 0.02 0.02
0.01 0.04 0.05 0.04 0.02 0.02 0.03 0.01 0.01 0.01 0.01 0.01 0.02 0.01 0.01 0.02 0.04 0.10 0.13 0.05 0.03 0.04

GFSNIL_prec_precacc_051.txt.gz
Total_Precipitation_Accumulation
0.00 0.00 0.00 0.00 0.00 0.00 0.00 0.00 0.00 0.00 0.00 0.00 0.01 0.02 0.07 0.21 0.35 0.43 0.48 0.48 0.43 0.35
0.00 0.00 0.00 0.00 0.00 0.00 0.00 0.00 0.00 0.00 0.01 0.05 0.12 0.18 0.27 0.32 0.29 0.27 0.24 0.20 0.16 0.15
0.00 0.00 0.00 0.00 0.00 0.00 0.00 0.00 0.01 0.07 0.16 0.17 0.13 0.08 0.07 0.06 0.06 0.06 0.07 0.08 0.08 0.08
0.00 0.00 0.00 0.00 0.00 0.00 0.00 0.00 0.01 0.03 0.01 0.02 0.04 0.04 0.02 0.02 0.02 0.02 0.02 0.03 0.03 0.02
0.00 0.00 0.00 0.00 0.00 0.00 0.00 0.00 0.03 0.04 0.04 0.05 0.04 0.03 0.03 0.02 0.02 0.03 0.03 0.01 0.01 0.01
0.00 0.00 0.00 0.00 0.00 0.01 0.02 0.03 0.05 0.07 0.05 0.05 0.04 0.02 0.01 0.01 0.01 0.01 0.00 0.00 0.00 0.00
0.00 0.00 0.00 0.01 0.02 0.01 0.03 0.07 0.07 0.06 0.06 0.03 0.01 0.01 0.01 0.01 0.00 0.00 0.00 0.00 0.00 0.00
0.00 0.00 0.01 0.01 0.01 0.04 0.06 0.05 0.07 0.05 0.02 0.00 0.00 0.00 0.00 0.00 0.00 0.00 0.00 0.00 0.00 0.00
0.03 0.07 0.11 0.14 0.10 0.07 0.08 0.08 0.02 0.00 0.00 0.00 0.00 0.00 0.00 0.00 0.00 0.00 0.00 0.00 0.00 0.00
0.09 0.12 0.09 0.05 0.06 0.05 0.02 0.01 0.00 0.01 0.01 0.01 0.00 0.00 0.00 0.00 0.00 0.00 0.00 0.00 0.00 0.00
0.02 0.03 0.03 0.02 0.02 0.01 0.01 0.03 0.04 0.02 0.00 0.00 0.00 0.00 0.00 0.00 0.00 0.00 0.00 0.00 0.00 0.00
0.02 0.03 0.02 0.02 0.03 0.04 0.07 0.04 0.01 0.00 0.00 0.00 0.01 0.00 0.00 0.00 0.00 0.01 0.01 0.00 0.01 0.02
0.01 0.03 0.03 0.04 0.03 0.04 0.03 0.01 0.01 0.00 0.00 0.00 0.01 0.01 0.01 0.01 0.03 0.07 0.04 0.03 0.02 0.02
0.01 0.04 0.05 0.04 0.02 0.02 0.03 0.01 0.01 0.01 0.01 0.01 0.02 0.01 0.01 0.02 0.04 0.10 0.13 0.05 0.03 0.04

GFSNIL_prec_precacc_054.txt.gz
Total_Precipitation_Accumulation
0.00 0.00 0.00 0.00 0.00 0.00 0.00 0.00 0.00 0.00 0.00 0.00 0.01 0.02 0.07 0.21 0.35 0.43 0.48 0.48 0.43 0.35
0.00 0.00 0.00 0.00 0.00 0.00 0.01 0.00 0.00 0.00 0.01 0.05 0.12 0.18 0.27 0.32 0.29 0.27 0.24 0.20 0.16 0.15
0.00 0.00 0.00 0.00 0.01 0.01 0.01 0.00 0.01 0.07 0.16 0.17 0.13 0.08 0.07 0.06 0.06 0.06 0.07 0.08 0.08 0.08
0.00 0.00 0.00 0.01 0.01 0.01 0.01 0.00 0.01 0.03 0.01 0.02 0.04 0.04 0.02 0.02 0.02 0.02 0.02 0.03 0.03 0.02
0.01 0.00 0.01 0.01 0.02 0.01 0.00 0.00 0.03 0.04 0.04 0.05 0.04 0.03 0.03 0.02 0.02 0.03 0.03 0.01 0.01 0.01
0.01 0.01 0.01 0.01 0.01 0.02 0.02 0.03 0.05 0.07 0.05 0.05 0.04 0.02 0.01 0.01 0.01 0.01 0.00 0.00 0.00 0.00
0.01 0.01 0.01 0.01 0.02 0.01 0.03 0.07 0.07 0.06 0.06 0.03 0.01 0.01 0.01 0.01 0.00 0.00 0.00 0.00 0.00 0.00
0.00 0.00 0.01 0.01 0.01 0.04 0.06 0.05 0.07 0.05 0.02 0.00 0.00 0.00 0.00 0.00 0.00 0.00 0.00 0.00 0.00 0.00
0.03 0.07 0.11 0.14 0.10 0.07 0.08 0.08 0.02 0.00 0.00 0.00 0.00 0.00 0.00 0.00 0.00 0.00 0.00 0.00 0.00 0.00
0.09 0.12 0.09 0.05 0.06 0.05 0.02 0.01 0.00 0.01 0.01 0.01 0.00 0.00 0.00 0.00 0.00 0.00 0.00 0.00 0.00 0.00
0.02 0.03 0.03 0.03 0.02 0.01 0.01 0.03 0.04 0.02 0.00 0.00 0.00 0.00 0.00 0.00 0.00 0.00 0.00 0.00 0.00 0.00
0.02 0.05 0.03 0.02 0.03 0.04 0.07 0.04 0.01 0.00 0.00 0.00 0.01 0.00 0.00 0.00 0.00 0.01 0.01 0.00 0.01 0.02
0.02 0.03 0.03 0.04 0.03 0.04 0.03 0.01 0.01 0.00 0.00 0.00 0.01 0.01 0.01 0.01 0.03 0.08 0.04 0.03 0.02 0.02
0.01 0.04 0.05 0.04 0.02 0.02 0.03 0.01 0.01 0.01 0.01 0.01 0.02 0.01 0.01 0.02 0.04 0.10 0.13 0.05 0.03 0.04

GFSNIL_prec_precacc_057.txt.gz
Total_Precipitation_Accumulation
0.00 0.00 0.00 0.00 0.00 0.00 0.00 0.00 0.02 0.05 0.03 0.01 0.01 0.02 0.07 0.21 0.35 0.43 0.48 0.48 0.43 0.35
0.00 0.00 0.00 0.00 0.00 0.01 0.04 0.08 0.07 0.02 0.02 0.05 0.12 0.18 0.27 0.32 0.29 0.27 0.24 0.20 0.16 0.15
0.00 0.00 0.00 0.01 0.01 0.03 0.05 0.07 0.03 0.09 0.18 0.17 0.13 0.08 0.07 0.06 0.06 0.06 0.07 0.08 0.08 0.08
0.00 0.00 0.00 0.02 0.05 0.08 0.08 0.06 0.08 0.09 0.04 0.03 0.04 0.04 0.02 0.02 0.02 0.02 0.02 0.03 0.03 0.02
0.01 0.02 0.03 0.03 0.03 0.04 0.06 0.05 0.05 0.05 0.04 0.05 0.04 0.03 0.03 0.02 0.02 0.03 0.03 0.01 0.01 0.01
0.04 0.04 0.04 0.03 0.02 0.03 0.04 0.04 0.05 0.07 0.05 0.05 0.04 0.02 0.01 0.01 0.01 0.01 0.00 0.00 0.00 0.00
0.05 0.04 0.02 0.02 0.02 0.01 0.03 0.07 0.07 0.06 0.06 0.03 0.01 0.01 0.01 0.01 0.00 0.00 0.00 0.00 0.00 0.00
0.02 0.01 0.01 0.01 0.01 0.04 0.06 0.05 0.07 0.05 0.02 0.00 0.00 0.00 0.00 0.00 0.00 0.00 0.00 0.00 0.00 0.00
0.04 0.08 0.11 0.14 0.10 0.07 0.08 0.08 0.02 0.00 0.00 0.00 0.00 0.00 0.00 0.00 0.00 0.00 0.00 0.00 0.00 0.00
0.09 0.12 0.09 0.05 0.06 0.06 0.03 0.01 0.00 0.01 0.01 0.01 0.00 0.00 0.00 0.00 0.00 0.00 0.00 0.00 0.00 0.00
0.02 0.03 0.04 0.05 0.04 0.02 0.01 0.03 0.04 0.02 0.00 0.00 0.00 0.00 0.00 0.00 0.00 0.00 0.00 0.00 0.00 0.00
0.02 0.07 0.06 0.04 0.03 0.04 0.07 0.04 0.01 0.00 0.00 0.00 0.01 0.00 0.00 0.00 0.00 0.01 0.01 0.00 0.01 0.02
0.05 0.05 0.03 0.04 0.03 0.04 0.03 0.01 0.01 0.00 0.00 0.00 0.01 0.01 0.01 0.01 0.03 0.08 0.04 0.03 0.02 0.02
0.01 0.04 0.05 0.04 0.02 0.02 0.03 0.01 0.01 0.01 0.01 0.01 0.02 0.01 0.01 0.02 0.04 0.10 0.13 0.05 0.03 0.04

GFSNIL_prec_precacc_060.txt.gz
Total_Precipitation_Accumulation
0.03 0.01 0.00 0.00 0.00 0.00 0.00 0.00 0.02 0.06 0.07 0.05 0.03 0.02 0.08 0.22 0.35 0.43 0.48 0.48 0.43 0.35
0.05 0.02 0.00 0.00 0.00 0.01 0.05 0.08 0.08 0.05 0.07 0.10 0.14 0.19 0.28 0.33 0.29 0.27 0.24 0.20 0.16 0.15
0.02 0.01 0.01 0.01 0.01 0.03 0.05 0.08 0.09 0.15 0.20 0.19 0.15 0.08 0.07 0.06 0.06 0.06 0.07 0.08 0.08 0.08
0.01 0.01 0.02 0.03 0.06 0.09 0.09 0.09 0.13 0.11 0.06 0.04 0.04 0.04 0.02 0.02 0.02 0.02 0.02 0.03 0.03 0.02
0.02 0.02 0.04 0.04 0.05 0.08 0.12 0.13 0.06 0.05 0.04 0.05 0.04 0.03 0.03 0.02 0.02 0.03 0.03 0.01 0.01 0.01
0.05 0.05 0.05 0.05 0.04 0.05 0.06 0.04 0.05 0.07 0.05 0.05 0.04 0.02 0.01 0.01 0.01 0.01 0.00 0.00 0.00 0.00
0.07 0.07 0.08 0.04 0.02 0.01 0.03 0.08 0.08 0.06 0.06 0.03 0.01 0.01 0.01 0.01 0.00 0.00 0.00 0.00 0.00 0.00
0.07 0.12 0.09 0.02 0.04 0.08 0.09 0.06 0.07 0.05 0.02 0.00 0.00 0.00 0.00 0.00 0.00 0.00 0.00 0.00 0.00 0.00
0.11 0.12 0.12 0.16 0.13 0.08 0.08 0.09 0.03 0.01 0.00 0.00 0.00 0.00 0.00 0.00 0.00 0.00 0.00 0.00 0.00 0.00
0.10 0.12 0.09 0.05 0.06 0.07 0.06 0.03 0.01 0.01 0.01 0.01 0.00 0.00 0.00 0.00 0.00 0.00 0.00 0.00 0.00 0.00
0.02 0.03 0.04 0.05 0.06 0.06 0.04 0.03 0.04 0.02 0.00 0.00 0.00 0.00 0.00 0.00 0.00 0.00 0.00 0.00 0.00 0.00
0.02 0.07 0.08 0.08 0.06 0.04 0.07 0.04 0.01 0.00 0.00 0.00 0.01 0.00 0.00 0.00 0.00 0.01 0.01 0.00 0.01 0.02
0.07 0.08 0.05 0.04 0.03 0.04 0.03 0.01 0.01 0.00 0.00 0.00 0.01 0.01 0.01 0.01 0.03 0.08 0.04 0.03 0.02 0.02
0.02 0.04 0.05 0.04 0.02 0.02 0.03 0.01 0.01 0.01 0.01 0.01 0.02 0.01 0.01 0.02 0.04 0.10 0.13 0.05 0.03 0.04

GFSNIL_prec_precacc_063.txt.gz
Total_Precipitation_Accumulation
0.11 0.06 0.02 0.00 0.01 0.00 0.00 0.00 0.02 0.06 0.07 0.05 0.04 0.04 0.08 0.22 0.35 0.43 0.48 0.48 0.43 0.35
0.10 0.09 0.07 0.04 0.01 0.01 0.05 0.08 0.08 0.05 0.07 0.12 0.16 0.20 0.28 0.33 0.29 0.27 0.24 0.20 0.16 0.15
0.07 0.06 0.07 0.08 0.03 0.03 0.05 0.08 0.09 0.17 0.28 0.28 0.17 0.09 0.07 0.06 0.06 0.06 0.07 0.08 0.08 0.08
0.06 0.11 0.15 0.14 0.10 0.10 0.11 0.14 0.21 0.20 0.08 0.05 0.05 0.04 0.02 0.02 0.02 0.02 0.02 0.03 0.03 0.02
0.10 0.12 0.14 0.11 0.09 0.12 0.20 0.19 0.11 0.06 0.05 0.06 0.05 0.04 0.03 0.02 0.02 0.03 0.03 0.01 0.01 0.01
0.14 0.11 0.11 0.10 0.10 0.09 0.11 0.08 0.07 0.10 0.10 0.10 0.05 0.02 0.01 0.01 0.01 0.01 0.00 0.00 0.00 0.00
0.14 0.12 0.13 0.18 0.23 0.19 0.10 0.11 0.17 0.19 0.14 0.05 0.01 0.01 0.01 0.01 0.00 0.00 0.00 0.00 0.00 0.00
0.11 0.16 0.19 0.16 0.11 0.12 0.17 0.16 0.11 0.05 0.02 0.00 0.00 0.00 0.00 0.00 0.00 0.00 0.00 0.00 0.00 0.00
0.11 0.14 0.17 0.20 0.16 0.11 0.09 0.09 0.05 0.02 0.01 0.00 0.00 0.00 0.00 0.00 0.00 0.00 0.00 0.00 0.00 0.00
0.10 0.12 0.10 0.06 0.07 0.08 0.08 0.09 0.04 0.01 0.01 0.01 0.00 0.00 0.00 0.00 0.00 0.00 0.00 0.00 0.00 0.00
0.02 0.03 0.04 0.06 0.09 0.11 0.08 0.04 0.04 0.02 0.00 0.00 0.00 0.00 0.00 0.00 0.00 0.00 0.00 0.00 0.00 0.00
0.03 0.07 0.10 0.11 0.08 0.05 0.07 0.04 0.01 0.00 0.00 0.00 0.01 0.00 0.00 0.00 0.00 0.01 0.01 0.00 0.01 0.02
0.08 0.10 0.07 0.04 0.03 0.04 0.03 0.01 0.01 0.00 0.00 0.00 0.01 0.01 0.01 0.01 0.03 0.08 0.04 0.03 0.02 0.02
0.02 0.04 0.05 0.04 0.02 0.02 0.03 0.01 0.01 0.01 0.01 0.01 0.02 0.01 0.01 0.02 0.04 0.10 0.13 0.05 0.03 0.04

GFSNIL_prec_precacc_066.txt.gz
Total_Precipitation_Accumulation
0.13 0.07 0.06 0.03 0.04 0.03 0.02 0.01 0.02 0.06 0.07 0.05 0.04 0.04 0.09 0.23 0.35 0.43 0.48 0.48 0.43 0.35
0.13 0.10 0.08 0.07 0.05 0.04 0.07 0.09 0.08 0.05 0.07 0.12 0.18 0.26 0.31 0.33 0.30 0.27 0.24 0.20 0.16 0.15
0.13 0.13 0.13 0.13 0.08 0.08 0.09 0.09 0.09 0.17 0.29 0.31 0.25 0.12 0.08 0.07 0.06 0.06 0.07 0.08 0.08 0.08
0.10 0.14 0.20 0.21 0.16 0.16 0.15 0.15 0.21 0.26 0.20 0.17 0.12 0.07 0.04 0.03 0.03 0.02 0.02 0.03 0.03 0.02
0.13 0.16 0.19 0.18 0.15 0.16 0.23 0.23 0.24 0.29 0.26 0.16 0.08 0.10 0.10 0.05 0.02 0.03 0.03 0.01 0.01 0.01
0.20 0.14 0.13 0.12 0.11 0.15 0.31 0.38 0.36 0.28 0.21 0.25 0.26 0.15 0.04 0.01 0.01 0.01 0.00 0.00 0.00 0.00
0.17 0.15 0.16 0.21 0.35 0.46 0.37 0.25 0.27 0.29 0.29 0.16 0.04 0.01 0.01 0.01 0.00 0.00 0.00 0.00 0.00 0.00
0.12 0.16 0.19 0.16 0.12 0.13 0.20 0.18 0.14 0.07 0.04 0.01 0.00 0.00 0.00 0.00 0.00 0.00 0.00 0.00 0.00 0.00
0.11 0.14 0.17 0.20 0.16 0.11 0.10 0.10 0.06 0.03 0.01 0.00 0.00 0.00 0.00 0.00 0.00 0.00 0.00 0.00 0.00 0.00
0.10 0.12 0.10 0.06 0.08 0.08 0.09 0.10 0.05 0.02 0.01 0.01 0.00 0.00 0.00 0.00 0.00 0.00 0.00 0.00 0.00 0.00
0.02 0.03 0.05 0.06 0.10 0.12 0.08 0.04 0.05 0.02 0.00 0.00 0.00 0.00 0.00 0.00 0.00 0.00 0.00 0.00 0.00 0.00
0.03 0.07 0.10 0.11 0.09 0.05 0.07 0.04 0.01 0.00 0.00 0.00 0.01 0.00 0.00 0.00 0.00 0.01 0.01 0.00 0.01 0.02
0.08 0.10 0.07 0.04 0.03 0.04 0.03 0.01 0.01 0.00 0.00 0.00 0.01 0.01 0.01 0.01 0.03 0.08 0.04 0.03 0.02 0.02
0.02 0.04 0.05 0.04 0.02 0.02 0.03 0.01 0.01 0.01 0.01 0.01 0.02 0.01 0.01 0.02 0.04 0.10 0.13 0.05 0.04 0.05

GFSNIL_prec_precacc_069.txt.gz
Total_Precipitation_Accumulation
0.13 0.07 0.09 0.04 0.05 0.04 0.04 0.05 0.05 0.09 0.09 0.06 0.04 0.04 0.09 0.23 0.36 0.43 0.48 0.48 0.43 0.35
0.13 0.10 0.09 0.08 0.06 0.05 0.08 0.11 0.11 0.08 0.10 0.14 0.19 0.26 0.33 0.37 0.35 0.31 0.25 0.20 0.16 0.15
0.13 0.13 0.14 0.15 0.11 0.11 0.12 0.13 0.15 0.27 0.41 0.36 0.26 0.17 0.17 0.16 0.12 0.07 0.08 0.08 0.08 0.08
0.10 0.14 0.21 0.24 0.20 0.19 0.21 0.25 0.33 0.40 0.25 0.19 0.21 0.20 0.15 0.09 0.06 0.06 0.04 0.04 0.03 0.02
0.14 0.16 0.20 0.19 0.15 0.17 0.24 0.24 0.27 0.39 0.47 0.43 0.31 0.24 0.19 0.16 0.10 0.06 0.04 0.01 0.01 0.01
0.21 0.18 0.17 0.13 0.12 0.16 0.37 0.51 0.59 0.56 0.44 0.41 0.34 0.21 0.09 0.04 0.02 0.01 0.00 0.00 0.00 0.00
0.19 0.17 0.17 0.22 0.35 0.48 0.44 0.35 0.32 0.33 0.31 0.18 0.05 0.02 0.02 0.01 0.00 0.00 0.00 0.00 0.00 0.00
0.13 0.17 0.21 0.16 0.12 0.13 0.20 0.18 0.14 0.07 0.04 0.02 0.01 0.00 0.00 0.00 0.00 0.00 0.00 0.00 0.00 0.00
0.13 0.14 0.17 0.20 0.16 0.11 0.10 0.10 0.06 0.03 0.01 0.00 0.00 0.00 0.00 0.00 0.00 0.00 0.00 0.00 0.00 0.00
0.11 0.13 0.10 0.06 0.08 0.08 0.09 0.10 0.05 0.02 0.01 0.01 0.00 0.00 0.00 0.00 0.00 0.00 0.00 0.00 0.00 0.00
0.02 0.03 0.05 0.06 0.10 0.12 0.08 0.04 0.05 0.02 0.00 0.00 0.00 0.00 0.00 0.00 0.00 0.00 0.00 0.00 0.00 0.00
0.03 0.07 0.10 0.11 0.09 0.05 0.07 0.04 0.01 0.00 0.00 0.00 0.01 0.00 0.00 0.00 0.00 0.01 0.01 0.00 0.01 0.02
0.08 0.10 0.07 0.04 0.03 0.04 0.03 0.01 0.01 0.00 0.00 0.00 0.01 0.01 0.01 0.01 0.03 0.08 0.04 0.03 0.02 0.02
0.02 0.04 0.05 0.04 0.02 0.02 0.03 0.01 0.01 0.01 0.01 0.01 0.02 0.01 0.01 0.02 0.04 0.10 0.13 0.05 0.04 0.05

GFSNIL_prec_precacc_075.txt.gz
Total_Precipitation_Accumulation
0.13 0.09 0.13 0.06 0.11 0.09 0.09 0.13 0.18 0.14 0.10 0.07 0.07 0.08 0.16 0.33 0.49 0.61 0.70 0.69 0.58 0.44
0.17 0.11 0.13 0.09 0.10 0.24 0.23 0.18 0.18 0.12 0.13 0.18 0.28 0.38 0.49 0.61 0.66 0.60 0.51 0.39 0.29 0.27
0.15 0.17 0.15 0.19 0.35 0.49 0.26 0.16 0.19 0.31 0.51 0.56 0.50 0.40 0.36 0.30 0.24 0.19 0.22 0.23 0.23 0.21
0.10 0.18 0.30 0.33 0.56 0.40 0.37 0.39 0.40 0.47 0.38 0.33 0.34 0.30 0.25 0.27 0.32 0.31 0.24 0.17 0.11 0.04
0.32 0.50 0.67 0.61 0.53 0.45 0.41 0.36 0.36 0.46 0.50 0.47 0.39 0.39 0.41 0.35 0.21 0.12 0.06 0.02 0.01 0.01
0.67 0.52 0.64 0.51 0.35 0.28 0.47 0.62 0.65 0.57 0.46 0.45 0.41 0.25 0.11 0.05 0.03 0.02 0.00 0.00 0.00 0.00
0.36 0.48 0.33 0.32 0.51 0.63 0.53 0.39 0.33 0.33 0.31 0.18 0.05 0.02 0.02 0.01 0.00 0.00 0.00 0.00 0.00 0.00
0.30 0.39 0.34 0.28 0.20 0.17 0.22 0.20 0.15 0.08 0.05 0.02 0.01 0.00 0.00 0.00 0.00 0.00 0.00 0.00 0.00 0.00
0.25 0.26 0.27 0.26 0.20 0.14 0.11 0.10 0.06 0.03 0.01 0.00 0.00 0.00 0.00 0.00 0.00 0.00 0.00 0.00 0.00 0.00
0.19 0.19 0.16 0.09 0.09 0.08 0.09 0.10 0.05 0.02 0.01 0.01 0.00 0.00 0.00 0.00 0.00 0.00 0.00 0.00 0.00 0.00
0.04 0.04 0.05 0.06 0.10 0.12 0.08 0.04 0.05 0.02 0.00 0.00 0.00 0.00 0.00 0.00 0.00 0.00 0.00 0.00 0.00 0.00
0.03 0.07 0.10 0.11 0.09 0.05 0.07 0.04 0.01 0.00 0.00 0.00 0.01 0.00 0.00 0.00 0.00 0.01 0.01 0.00 0.01 0.02
0.08 0.10 0.07 0.04 0.03 0.04 0.03 0.01 0.01 0.00 0.00 0.00 0.01 0.01 0.01 0.01 0.03 0.08 0.04 0.03 0.02 0.02
0.02 0.04 0.05 0.04 0.02 0.02 0.03 0.01 0.01 0.01 0.01 0.01 0.02 0.01 0.01 0.02 0.04 0.10 0.13 0.05 0.04 0.05